カタログに戻る

STARLINK-6343

運用中通信VLEO
NORAD 57362·PAYLOAD·🇺🇸 United States

打ち上げ Jul 16, 2023 から Cape Canaveral Space Force Station

Loading…

次のパス (今後24時間)

TLE

最新Source: CelesTrak SupGP

元期: Sep 15, 2026, 03:22 UTC

1 57362C 23099AL  26258.14076389 -.00045980  00000+0 -16650-2 0  2582
2 57362  43.0007 251.4948 0001495 270.5329 193.3415 15.27609865    15

AllMySatでSTARLINK-6343をリアルタイム追跡

Download on the App Store